Flag for Greenland Weather past 2 weeks in Upernavik, Greenland

Now
16 °F

Light snow. Overcast.


Feels Like: 3 °F
Forecast: -5 / 17 °F
Wind: 12 mph from East

Location: Jacobshavn Lufthavn

Current Time: Apr 27, 2015 at 7:34:46 AM

Latest Report: Apr 27, 2015 at 6:00 AM


Visibility: 12 mi

Pressure: 30.37 "Hg

Humidity: 64%

Dew point: 6 °F

Location of UpernavikLocation

Historic Weather in Upernavik — Graph

°F

Upernavik temperature yesterday

Maximum temperature yesterday: 23 °F (at 6:00 PM)
Minimum temperature yesterday: 10 °F (at 1:00 AM)
Average temperature yesterday: 17 °F

Past Weeks' High & Low Weather Summary

 TemperatureHumidityPressure
High24 °F (Apr 14, 11:00 AM)92% (Apr 14, 1:00 PM)30.67 "Hg (Apr 14, 1:00 PM)
Low-1 °F (Apr 17, 5:00 AM)31% (Apr 18, 2:00 PM)28.88 "Hg (Apr 15, 9:00 AM)
Average11 °F63%29.90 "Hg
* Reported Apr 12 5:00 AM — Apr 27 5:00 AM, Upernavik, Weather by CustomWeather, © 2015

Note: Actual official high and low records may vary slightly from our data, if they occured in-between our weather recording intervals... More about our weather records

Advertising

Upernavik weather history for previous 24 hours

 ConditionsComfort  
Time TempWeatherWind HumidityBarometerVisibility
5:00 AM
Mon, Apr 27
15 °FPassing clouds.13 mph67%30.38 "Hg19 mi
4:00 AM17 °FPassing clouds.13 mph66%30.38 "Hg31 mi
3:00 AM17 °FLight snow. Low clouds.12 mph73%30.38 "Hg4 mi
2:00 AM18 °FLight snow. Overcast.14 mph74%30.39 "Hg2 mi
1:00 AM19 °FSnow flurries. Overcast.12 mph67%30.39 "Hg4 mi
11:00 PM
Sun, Apr 26
19 °FLight snow. Overcast.14 mph70%30.39 "Hg3 mi
10:00 PM20 °FOvercast.15 mph63%30.39 "Hg31 mi
9:00 PM19 °FOvercast.13 mph52%30.39 "Hg31 mi
8:00 PM21 °FCold.14 mph44%30.38 "Hg28 mi
7:00 PM21 °FOvercast.12 mph46%30.39 "Hg25 mi
6:00 PM23 °FOvercast.8 mph42%30.40 "Hg22 mi
5:00 PM22 °FPartly sunny.9 mph44%30.40 "Hg22 mi
4:00 PM21 °FScattered clouds.10 mph46%30.41 "Hg28 mi
3:00 PM20 °FPassing clouds.12 mph42%30.41 "Hg25 mi
2:00 PM20 °FScattered clouds.16 mph44%30.42 "Hg7 mi
1:00 PM19 °FCold.16 mph44%30.43 "Hg8 mi
12:00 PM17 °FPassing clouds.18 mph51%30.45 "Hg3 mi
11:00 AM16 °FFog.20 mph57%30.45 "Hg3 mi
10:00 AM16 °FPartly sunny.21 mph60%30.44 "Hg2 mi
9:00 AM15 °FOvercast.22 mph63%30.42 "Hg2 mi
8:00 AM14 °FSnow flurries. Overcast.22 mph62%30.40 "Hg1 mi
7:00 AM13 °FSnow flurries. Overcast.22 mph66%30.38 "Hg2 mi
Weather by CustomWeather, © 2015

See weather overviewHow to use our weather pages